STARLINK-5714 (55614 NORAD) Tracking and Keplerian Element Data

This shows tracking and keplerian element data for the satellite.

Feedback or suggestion? Click here.




ElementValue
Catalog55614
NameSTARLINK-5714
Epoch Orbit662
Epoch Day85.17475567
Epoch Year2023
RAAN102.3891
Inclination42.9999
Eccentricity0.0001613
Argument of Perigee226.3707
Mean Anonmoly133.7027
Mean Motion15.71337461
Decay Rate3.472E-05
L11 55614U 23020AX 23085.17475567 .00003472 00000+0 29933-4 0 9993
L22 55614 42.9999 102.3891 0001613 226.3707 133.7027 15.71337461 6622



Live tracking and technical data element details for STARLINK-5714 (NORAD 55614). STARLINK-5714 can be tracked NOW for your location showing map with azimuth and elevation plus other details from your city location.







IsCatalogInMostPopularTable: catalog: 55614, numindb: -1

Insert: records affected: 1


GetName: 55614 STARLINK-5714

Hit Count: inserted at: Tue, 28 Mar 2023 03:27:49 GMT